Theta_e
290 291 291 291 292 292 291 291 292 292 293 294 295 296 297 297 298 298 298 298 299 300 301 302 303 304 306 308 312 315 319 324 328 329 330 331 334 332 329 331 335 338 340 345 347 347 349 346 350 350 347 347 350 351 349 348 345 348 349 348 348 348 347 344 343 343 343 342 342 342 342 341 340 339 338 337 336 335 334 333 333 332 331 331 331
289 290 290 290 291 291 291 291 291 292 292 293 295 296 296 297 297 298 298 298 299 299 300 301 301 303 304 306 308 310 313 318 322 326 329 330 332 332 327 328 332 337 339 341 345 345 343 347 349 350 348 350 348 351 350 348 346 347 346 347 345 345 346 344 343 343 342 342 342 342 341 341 339 339 337 337 336 335 334 333 333 332 331 331 330
289 290 290 290 290 290 290 291 291 291 292 293 294 295 296 296 297 297 297 298 298 299 299 299 300 301 302 303 304 305 306 310 315 320 324 328 330 332 331 326 328 332 335 339 342 344 344 344 347 348 348 346 346 347 348 348 349 347 345 345 344 347 347 344 343 342 342 342 341 341 341 340 339 338 338 336 336 335 334 333 332 332 331 330 329
289 289 290 289 289 289 290 290 290 291 292 292 293 294 295 296 297 297 298 298 298 298 299 298 298 299 300 301 302 302 304 306 309 314 318 323 328 331 332 331 326 327 330 335 340 342 344 344 344 346 346 346 348 347 345 347 346 347 344 346 346 346 344 345 343 342 342 342 341 341 340 339 338 338 337 336 335 335 334 333 332 331 330 330 329
288 289 290 288 288 288 288 288 289 290 290 291 292 294 294 295 295 296 296 297 297 297 298 298 298 298 299 299 300 300 302 305 306 309 313 317 323 327 330 330 330 325 325 328 333 338 340 342 342 344 346 344 347 348 344 345 343 347 344 346 347 347 346 346 342 342 343 343 342 341 340 339 338 338 337 336 335 334 334 333 332 330 329 330 329
288 288 288 287 287 287 286 287 287 288 289 289 289 291 293 294 294 295 296 296 295 296 296 296 297 297 297 298 299 300 301 303 304 307 310 313 317 322 326 329 330 330 329 325 325 329 335 339 341 341 342 344 347 346 345 345 345 346 346 345 346 347 347 347 345 344 344 344 342 341 339 339 338 338 337 336 335 334 333 333 332 330 329 329 328
287 287 286 286 285 285 286 286 287 287 287 288 288 289 291 292 293 294 294 294 295 296 296 296 296 296 297 298 298 299 300 301 303 305 307 310 315 318 322 326 328 329 329 329 321 321 327 333 338 340 341 342 345 346 347 344 343 346 346 345 346 347 346 348 346 345 342 341 340 340 339 338 338 337 336 335 334 333 333 331 330 330 329 329 328
286 286 285 285 285 284 285 286 286 286 286 287 288 288 289 291 292 293 293 294 295 295 296 295 296 296 296 297 298 298 299 300 301 303 305 308 312 316 320 323 326 327 323 328 329 325 321 325 332 336 337 339 342 343 343 345 343 344 348 345 346 346 344 344 345 344 342 339 339 339 338 337 337 337 336 334 334 333 332 331 330 329 329 328 328
285 285 284 284 284 284 284 284 285 285 285 286 286 288 287 288 290 293 294 293 294 294 295 295 295 296 296 296 297 298 298 300 300 302 304 306 308 312 317 320 322 319 326 327 328 329 323 321 326 329 330 335 339 342 342 345 344 344 346 346 346 344 344 345 343 342 341 339 338 338 338 337 337 336 335 334 333 332 331 330 329 329 329 328 327
284 284 283 284 283 283 283 283 284 284 284 284 285 286 286 287 288 290 293 294 294 294 294 295 296 296 296 296 297 297 298 299 300 300 302 303 305 309 312 317 321 324 326 327 327 329 330 325 320 322 322 327 335 341 340 338 340 341 345 346 348 346 343 342 342 341 340 339 338 338 337 337 336 336 335 334 333 332 330 330 329 329 328 328 327
284 284 283 283 282 282 282 282 283 283 283 283 283 285 285 286 285 286 289 292 294 295 295 295 295 295 295 296 296 297 298 298 299 299 301 303 304 307 311 315 318 322 325 326 327 328 329 330 328 327 328 322 331 337 338 338 338 339 344 343 343 346 345 342 342 340 339 338 338 338 337 336 336 335 334 333 332 331 330 329 329 329 327 328 327
283 282 282 282 281 281 281 282 282 282 282 282 282 283 284 284 285 286 286 289 292 294 295 294 294 294 295 295 296 296 296 297 297 299 300 302 304 307 310 313 316 319 323 326 327 328 329 330 325 328 328 326 324 327 333 333 334 340 341 343 346 345 342 343 341 340 339 339 338 338 337 336 335 334 334 333 332 330 329 328 329 329 327 327 326
283 282 281 282 281 281 281 281 281 282 282 282 283 283 284 285 286 286 286 287 290 293 294 295 293 292 294 293 294 295 296 296 296 297 298 301 304 306 309 313 315 318 321 325 327 328 329 330 330 329 328 328 326 321 324 327 328 335 340 342 342 341 344 343 341 341 339 338 337 337 336 335 335 334 333 332 331 330 328 328 328 329 327 327 326
282 281 281 280 280 280 280 280 281 281 282 283 284 285 285 285 285 285 286 287 288 293 295 294 291 289 288 289 291 293 294 294 294 295 297 299 301 304 308 311 314 317 321 324 326 328 329 330 330 329 329 328 327 327 327 326 327 331 339 338 339 343 343 341 343 342 339 338 337 336 334 334 334 333 332 331 330 329 329 328 328 328 327 327 326
281 282 281 281 280 280 280 280 281 282 282 282 283 282 283 283 284 284 284 287 288 291 292 293 289 290 291 289 287 287 291 293 295 297 299 301 303 305 308 310 313 316 319 322 325 327 328 329 329 329 329 328 327 326 327 323 327 322 328 335 340 344 342 343 344 344 338 337 335 335 334 333 334 333 332 331 329 329 328 328 328 328 327 326 327
281 280 281 280 280 280 280 280 281 282 281 280 280 280 281 282 283 284 286 285 287 288 291 292 292 291 286 287 287 288 285 287 289 295 302 305 307 309 310 311 313 315 318 319 322 325 327 328 329 329 329 328 327 327 327 327 322 314 314 321 326 337 342 344 342 343 340 338 336 334 333 333 333 332 331 331 329 329 329 329 328 327 326 326 327
280 280 281 280 280 280 280 280 280 280 280 280 280 280 281 282 283 284 286 287 286 288 290 292 292 294 291 288 285 285 285 287 290 290 294 296 299 303 306 310 313 314 316 318 321 323 325 326 327 328 329 329 328 327 327 326 325 319 321 312 316 325 335 341 343 343 341 338 337 334 334 333 333 332 331 331 329 329 328 327 328 328 327 327 327
279 279 279 280 280 280 280 280 279 280 280 280 280 280 280 280 282 283 284 285 285 286 286 290 293 293 294 294 292 287 286 287 288 284 290 295 295 296 297 300 302 307 312 315 317 320 321 323 325 325 327 328 328 328 327 327 322 326 326 326 316 322 327 334 344 344 340 339 338 337 335 333 332 331 330 329 328 329 328 328 328 328 327 328 327
279 279 279 279 280 280 279 279 279 279 280 279 278 279 279 280 282 282 282 284 285 285 285 287 291 293 294 295 295 294 294 290 286 288 286 290 292 293 296 300 303 304 306 310 312 315 318 319 322 324 325 326 327 328 328 327 322 321 317 318 319 320 323 326 332 338 341 338 337 338 335 334 332 332 331 329 329 328 328 328 328 328 327 326 326
279 279 279 279 280 279 279 279 279 278 279 278 278 279 280 280 281 281 281 281 282 283 286 288 287 287 292 293 294 294 294 294 293 290 288 286 288 292 295 297 299 299 301 303 307 311 314 317 320 322 324 325 326 327 328 328 327 326 322 317 320 320 322 324 326 328 333 335 337 337 336 335 334 332 330 329 329 328 329 328 328 328 327 327 326
278 278 278 279 280 279 279 278 278 278 279 279 278 279 279 279 279 279 279 281 283 286 286 286 286 286 288 289 291 292 293 294 295 293 290 289 289 290 291 295 298 300 302 304 307 309 311 315 318 319 320 323 326 326 327 328 327 327 321 317 318 321 322 323 323 323 327 328 331 333 335 334 334 333 332 331 329 330 329 328 329 329 329 329 328
277 278 278 278 278 278 278 278 278 278 279 278 278 278 278 279 279 280 280 281 282 282 283 285 286 287 287 288 287 289 290 291 292 292 292 292 287 288 291 292 291 295 300 304 307 309 311 313 315 318 321 323 325 326 327 327 328 327 323 316 317 320 322 324 324 324 323 324 325 327 330 332 333 333 332 331 331 329 329 330 328 328 327 328 328
277 277 277 277 277 278 278 277 278 279 278 277 277 277 278 279 280 280 280 279 279 279 281 284 286 286 286 287 288 287 288 288 290 290 291 290 290 290 292 293 292 293 296 299 302 307 311 313 314 316 319 322 324 325 326 326 319 321 317 317 317 319 321 322 323 323 323 322 323 325 326 327 328 330 331 332 331 330 330 330 330 328 328 328 328
276 276 276 276 277 277 277 277 277 277 277 277 277 277 278 279 279 280 279 279 278 279 280 282 284 284 285 287 288 289 290 290 291 291 290 290 291 290 291 293 294 295 299 301 304 306 308 311 313 315 318 320 322 323 324 326 324 315 316 314 317 317 320 321 322 322 322 321 322 324 325 325 325 326 328 330 331 330 329 330 330 328 328 328 327
275 275 275 276 276 276 276 276 276 277 277 277 277 277 277 278 278 278 277 277 277 278 280 283 284 284 284 286 287 288 289 292 292 291 292 291 290 288 290 293 292 293 296 299 299 305 309 310 313 315 317 319 321 322 323 324 323 315 310 315 314 317 317 320 321 321 320 319 320 322 323 323 323 325 327 328 329 330 331 330 329 329 328 328 329
274 275 275 276 276 276 276 276 276 277 277 277 277 277 277 277 277 277 277 277 278 280 282 281 281 282 284 284 285 286 288 291 292 292 291 291 290 290 290 291 293 292 295 296 299 299 303 309 312 315 316 318 320 321 321 322 323 307 306 315 315 315 316 320 322 320 319 319 319 320 319 320 322 323 324 329 329 329 330 330 330 330 330 329 329
274 275 276 275 275 276 276 276 276 277 277 277 277 277 277 277 277 277 277 278 279 281 281 280 280 281 282 283 284 285 287 290 292 292 293 293 293 292 291 289 290 292 292 295 297 298 300 304 310 312 314 315 318 320 320 321 314 305 304 317 320 312 314 318 320 319 318 318 318 317 317 317 319 322 322 325 327 327 328 328 330 329 327 329 328
275 275 275 275 275 275 276 276 276 277 277 277 276 276 277 277 277 277 276 278 278 279 279 280 281 282 282 283 284 285 286 289 292 293 294 294 294 294 293 292 290 289 292 292 294 296 301 301 305 310 312 315 317 318 313 315 319 305 302 319 319 315 313 316 318 318 318 317 317 316 317 316 318 320 320 321 321 323 325 325 325 324 323 322 322
275 275 275 275 275 276 276 276 276 276 276 276 276 276 276 276 276 276 276 277 277 276 276 277 278 280 282 283 284 285 286 288 291 292 292 292 293 294 295 293 293 291 290 290 292 293 297 304 303 307 312 315 316 317 318 318 312 307 313 317 319 318 313 315 317 318 318 317 317 316 316 316 317 318 318 319 319 320 321 320 320 319 321 321 322
275 275 275 275 275 276 275 275 276 276 276 276 276 275 275 275 275 275 275 276 275 276 277 277 278 280 282 283 284 284 285 287 289 292 291 292 293 295 295 295 295 293 293 290 291 295 296 301 305 306 310 313 317 317 318 318 306 309 316 318 318 319 311 312 314 316 316 316 316 315 315 315 316 316 316 317 317 319 320 320 319 319 321 322 324
274 274 274 274 274 275 275 275 275 275 275 275 275 275 275 274 275 275 275 276 276 276 277 279 280 279 279 279 281 282 283 284 287 290 291 290 292 294 294 295 295 295 295 293 290 294 298 296 300 304 308 312 316 317 317 318 308 311 318 319 319 311 306 311 311 314 315 315 315 315 315 315 315 315 315 315 318 318 319 319 318 318 320 322 324
273 273 273 273 273 273 274 274 274 275 275 275 275 274 274 274 274 274 274 275 274 275 276 276 277 277 277 278 279 280 282 284 285 288 290 292 293 293 294 294 295 296 296 295 293 292 297 297 298 301 306 310 315 316 316 316 309 304 318 319 318 305 310 314 309 312 313 314 315 315 315 315 315 315 315 315 317 318 318 318 318 318 319 320 323
272 272 272 272 273 273 274 274 274 274 274 274 274 273 273 272 273 273 273 274 273 274 275 275 275 275 276 277 279 281 282 281 283 286 290 291 292 292 294 294 294 295 295 295 293 293 296 299 299 300 302 307 310 315 315 315 310 312 313 319 316 314 314 316 315 308 310 313 314 314 314 314 315 314 314 314 316 316 316 317 316 316 318 320 321
271 271 271 272 272 273 273 273 273 273 273 273 273 273 272 271 271 272 272 272 273 273 274 274 274 275 276 276 276 278 280 280 281 283 288 291 291 292 293 293 293 294 296 295 294 293 293 296 297 301 302 306 307 314 315 313 310 310 316 318 316 316 316 316 315 314 309 311 313 314 314 314 315 314 314 314 315 316 316 316 315 315 317 318 319
270 271 271 271 271 272 272 272 272 271 272 272 272 272 271 271 270 271 271 272 272 272 272 272 273 274 274 274 275 276 278 279 280 283 287 290 291 291 292 293 292 294 295 297 295 294 294 294 298 299 301 304 307 311 315 314 311 314 316 316 315 316 316 316 316 315 309 311 313 313 314 314 314 314 313 313 314 314 315 315 315 314 316 317 317
269 270 271 270 271 271 270 270 270 270 270 270 270 270 270 270 270 270 271 271 272 272 272 272 272 273 272 273 274 275 277 278 280 281 285 290 291 291 291 292 293 293 295 296 296 296 295 294 296 298 301 303 307 314 316 314 313 314 316 315 315 316 315 315 316 315 310 311 311 312 312 312 313 313 313 313 314 314 314 314 314 314 314 314 315
269 269 269 270 269 269 269 268 268 268 268 268 268 269 269 270 270 270 270 270 271 272 272 272 273 272 272 272 273 275 277 278 279 280 283 287 290 290 291 292 292 293 294 295 295 296 296 295 295 298 301 304 308 313 314 312 311 313 313 313 313 314 314 313 315 314 308 309 309 310 310 311 311 312 313 313 313 314 314 314 313 313 312 312 312
268 268 268 268 268 267 267 267 267 267 267 267 268 268 268 269 269 269 270 270 270 271 271 272 272 272 272 272 273 274 276 278 279 281 284 287 289 290 290 291 292 292 292 293 294 294 294 296 296 296 299 301 303 306 311 313 311 308 307 309 311 312 311 311 311 312 311 313 312 313 309 310 309 310 312 312 313 313 313 313 312 311 310 309 310
266 266 266 266 266 266 266 266 266 266 266 266 266 267 267 268 268 268 269 269 270 271 271 271 272 272 272 272 273 274 275 276 278 280 282 285 288 288 289 290 291 291 291 292 293 293 293 294 295 297 297 300 303 303 308 313 312 310 307 305 304 306 308 310 308 309 311 313 310 309 311 311 309 311 310 311 312 312 312 312 312 310 308 308 309
264 264 264 264 265 265 265 265 265 265 265 265 266 266 267 267 268 268 268 269 269 270 271 271 272 272 272 272 273 273 274 277 280 282 285 286 287 288 289 290 289 288 288 289 290 292 292 294 295 295 297 298 300 305 307 310 308 307 309 308 304 304 305 307 308 308 309 311 311 311 309 308 308 309 309 310 310 311 311 310 309 307 305 308 309
263 263 263 263 263 263 264 264 264 265 265 265 266 266 266 267 268 268 268 269 269 269 270 270 271 271 272 272 273 273 274 277 279 280 282 284 285 287 288 287 286 286 287 287 287 287 289 292 294 296 296 297 300 302 304 306 307 306 307 309 307 307 306 306 306 309 309 310 308 310 310 312 310 311 311 312 313 310 309 307 307 304 305 308 309
262 262 262 262 262 262 262 263 264 264 264 265 267 271 272 269 269 270 270 270 270 270 270 270 270 271 272 272 273 276 277 278 279 281 282 283 285 286 288 287 286 286 286 285 285 286 287 288 290 294 295 296 299 302 305 307 309 309 308 308 306 305 306 303 303 303 307 309 308 307 308 310 311 310 311 312 313 309 311 312 312 309 306 308 308
260 261 261 261 261 262 262 263 263 264 265 266 270 272 273 275 272 271 271 271 272 271 271 271 270 271 272 274 275 276 278 279 279 282 283 284 286 288 290 289 288 287 285 285 285 285 285 285 288 293 295 296 299 304 306 308 309 309 308 308 305 305 303 301 298 299 303 308 307 306 304 305 309 307 308 310 311 311 313 312 307 305 306 308 308
260 260 260 261 261 262 263 263 264 264 265 269 272 273 274 275 275 272 272 272 272 272 272 272 272 273 273 273 274 275 277 279 280 282 284 286 287 288 289 289 289 289 289 287 285 285 285 284 285 289 296 297 300 304 306 308 307 308 308 307 306 305 303 302 302 301 303 308 307 304 301 298 305 306 306 308 308 311 311 309 306 306 307 308 307
260 260 260 261 262 263 263 263 264 264 265 270 272 273 274 275 276 275 273 273 272 272 273 273 273 273 273 273 274 275 277 280 281 282 284 285 287 288 289 289 289 289 289 289 289 286 286 285 285 285 293 300 300 303 307 308 308 306 305 305 305 305 305 303 303 303 303 308 307 303 301 297 300 302 303 303 303 308 307 306 306 306 306 308 308
260 261 261 262 263 263 263 263 263 264 264 268 272 273 274 275 276 276 274 274 273 273 273 273 274 273 273 273 273 274 276 278 281 284 285 286 286 286 287 287 286 286 288 288 288 288 287 286 286 285 288 298 301 304 306 307 306 304 304 303 304 303 303 303 305 304 305 308 305 303 301 297 297 302 301 297 297 301 304 306 305 305 306 307 307
260 261 261 261 261 262 262 263 263 263 264 270 272 273 274 275 276 277 274 274 275 275 275 275 274 274 274 275 274 274 276 278 281 283 284 285 285 286 285 285 286 286 286 286 287 287 287 287 287 287 289 292 302 306 308 309 308 308 307 304 304 304 303 301 301 300 302 306 306 304 299 299 296 301 299 295 295 297 297 304 304 305 305 306 306
261 261 261 262 261 261 262 262 262 262 263 270 271 272 274 275 277 274 274 274 275 274 274 275 275 275 275 275 275 275 276 277 279 282 283 284 285 285 285 285 286 286 286 288 288 288 288 289 290 292 293 294 297 305 305 309 309 309 305 304 300 297 298 300 298 298 299 301 303 303 300 298 296 301 296 293 295 297 295 298 303 305 305 306 306
260 260 260 261 261 261 261 261 262 262 263 267 271 273 274 275 275 273 274 275 275 275 275 275 275 275 275 275 275 275 276 277 280 283 285 285 284 284 284 285 285 286 286 287 288 289 289 290 291 291 293 296 298 302 304 305 304 305 303 300 297 302 301 299 296 298 299 300 300 301 300 296 294 299 293 292 296 297 297 297 300 304 305 305 306
259 260 260 260 260 261 261 261 262 262 264 267 271 272 273 275 275 273 273 273 274 275 275 275 275 276 276 278 277 276 276 278 282 284 285 284 282 283 284 284 284 285 285 287 287 287 288 289 290 291 293 295 297 301 303 304 303 301 302 300 300 303 301 299 297 298 299 299 299 299 297 297 295 296 292 290 292 292 296 295 294 298 302 304 305
259 260 260 260 260 260 261 261 265 264 263 265 270 271 273 274 274 273 273 273 273 273 274 275 276 276 276 277 279 279 278 279 282 283 284 284 283 283 284 284 283 284 285 286 286 286 286 286 288 292 293 294 297 303 301 301 300 300 306 303 303 303 301 299 298 298 297 298 299 299 298 294 295 296 294 293 295 290 290 293 295 297 299 299 304
Wind_Speed
4 4 4 6 6 6 6 6 6 6 6 6 7 8 8 8 8 8 8 8 7 7 7 7 7 8 8 10 10 11 11 11 11 12 12 12 11 13 18 20 22 23 24 25 28 28 29 30 28 27 28 30 27 23 22 24 28 27 27 29 30 29 28 28 27 27 26 25 25 25 26 27 27 26 26 26 25 24 23 23 23 23 22 23 21
5 4 5 5 5 5 6 7 7 7 7 8 7 7 8 8 8 8 8 8 8 8 7 7 7 7 7 9 9 10 10 11 12 12 12 12 12 12 19 20 22 23 24 22 28 29 30 30 30 30 32 29 28 26 26 26 30 28 29 25 28 28 30 28 28 27 27 27 26 26 27 27 26 25 26 27 27 26 25 24 24 23 22 21 22
6 6 5 6 5 6 6 7 8 8 8 8 8 8 8 8 8 9 8 9 8 7 7 8 7 7 6 7 8 9 10 10 11 12 13 13 13 13 14 21 21 23 24 23 22 25 28 30 29 30 33 33 31 30 28 27 26 25 21 26 28 26 26 28 27 28 28 27 27 26 27 27 26 26 26 28 26 27 25 24 24 23 23 22 21
4 5 6 6 7 7 7 7 7 7 8 9 10 10 9 9 8 8 8 8 9 7 6 7 8 7 7 8 7 8 8 9 10 11 12 13 14 14 13 14 20 22 24 25 24 25 28 30 30 28 29 32 29 29 32 29 29 29 28 25 29 31 30 28 30 28 28 28 28 27 28 27 27 27 26 26 27 27 25 24 24 24 23 22 22
4 5 6 6 6 7 7 7 7 7 8 9 11 10 9 9 10 8 8 8 9 9 7 7 8 7 7 8 8 8 8 8 9 11 11 12 13 14 13 13 14 18 23 24 24 24 27 27 30 30 29 33 32 34 35 28 33 32 28 31 27 32 33 28 30 29 28 28 29 29 29 27 27 27 27 27 27 26 25 24 25 24 23 24 23
5 6 6 7 7 7 8 7 7 8 8 8 9 9 9 9 10 10 9 9 9 9 8 9 8 7 7 7 7 8 8 9 9 10 11 11 12 13 14 13 13 13 14 21 23 23 25 26 26 28 31 31 30 37 31 30 32 31 31 32 32 30 34 31 30 30 29 28 29 30 29 29 28 28 27 28 27 26 26 24 24 25 24 24 23
5 5 5 5 5 6 6 7 8 8 8 8 8 8 9 9 9 9 10 10 10 9 9 10 9 10 8 7 8 8 9 10 10 10 11 11 11 13 14 14 13 13 14 12 16 23 24 26 26 26 28 31 32 32 29 28 35 36 32 31 32 29 34 32 34 33 31 33 27 28 29 29 30 29 28 30 27 28 27 25 25 27 25 25 24
4 3 3 4 5 5 6 6 7 8 8 8 8 9 9 9 9 9 11 11 10 12 8 10 9 11 9 9 9 8 10 10 11 10 10 10 11 12 13 13 15 14 15 13 12 13 22 25 27 26 30 31 32 32 32 31 33 33 29 34 33 33 35 33 32 32 31 33 29 30 30 29 30 29 30 30 27 27 27 27 27 27 26 26 26
4 3 3 4 4 5 6 6 6 7 7 8 8 8 9 10 10 9 9 12 11 12 11 9 10 11 11 10 10 10 11 10 11 11 10 11 12 13 13 14 15 18 15 14 13 12 15 22 26 28 27 31 33 29 29 32 31 33 33 32 34 34 33 34 30 35 35 34 32 32 31 30 29 31 29 31 28 28 27 27 27 27 27 27 26
4 4 4 5 5 5 6 6 7 7 7 7 8 7 8 9 11 10 10 10 11 11 11 9 10 11 12 13 13 11 11 11 11 12 11 13 12 13 14 13 13 16 16 15 15 13 12 16 24 28 29 29 31 30 23 30 33 36 32 32 32 31 30 37 34 36 34 33 31 32 32 32 31 32 30 30 30 29 29 28 28 27 28 27 27
4 4 5 6 7 7 7 7 7 7 7 7 7 7 7 8 10 12 11 11 12 11 11 10 11 12 13 15 13 14 13 12 12 11 12 13 14 14 12 13 13 14 16 16 15 14 14 13 12 14 20 30 30 29 26 27 26 30 32 30 34 33 33 34 33 34 32 33 34 34 34 34 33 32 33 32 30 29 29 28 29 29 29 28 28
3 3 3 5 6 6 7 7 7 8 9 9 8 7 9 9 10 11 13 12 11 11 10 10 11 13 15 14 14 14 15 13 13 13 12 13 14 13 13 13 13 15 17 17 15 15 14 14 12 14 15 22 29 27 26 27 27 28 29 33 32 32 29 33 35 35 34 29 28 27 27 32 33 33 32 30 30 30 31 30 30 29 29 29 29
4 4 5 6 6 6 7 7 7 7 8 8 9 10 9 9 9 9 12 14 11 8 9 8 11 14 11 13 15 12 14 14 15 16 15 14 13 13 13 13 13 14 15 16 16 16 15 14 14 14 15 14 17 27 29 27 27 28 30 28 30 29 30 35 33 34 28 34 33 35 32 32 33 32 32 32 30 31 33 32 33 30 30 29 29
5 4 5 5 7 7 7 7 7 7 8 8 8 9 9 8 8 10 7 11 12 8 8 7 9 10 13 14 14 13 11 14 16 16 15 13 13 14 14 14 15 15 14 15 16 16 15 14 14 15 15 14 13 14 18 21 25 33 30 32 31 31 30 34 34 35 31 32 35 35 36 33 32 37 34 32 34 34 34 32 32 32 31 31 31
6 6 5 5 6 7 7 7 6 7 7 7 6 8 8 10 10 10 11 8 10 9 9 7 12 10 10 12 15 15 12 8 9 11 12 12 12 13 15 16 17 15 13 14 15 15 15 15 15 15 15 15 14 14 15 18 21 26 26 25 24 24 30 31 37 37 35 34 32 34 35 37 34 34 34 33 34 33 33 33 32 32 31 31 31
6 6 6 6 6 7 7 7 7 6 8 9 8 8 8 8 9 12 11 13 9 9 7 9 9 9 10 8 10 9 16 13 4 6 7 8 8 10 11 14 14 14 12 14 15 15 15 15 16 16 16 15 14 15 15 16 23 23 25 24 23 21 24 29 39 38 38 36 35 36 36 37 34 34 36 34 37 35 34 33 34 35 33 32 31
6 6 6 6 6 6 7 8 8 7 7 8 8 8 8 8 10 11 12 10 13 12 10 10 12 11 12 10 10 10 12 15 11 11 9 10 11 9 7 11 13 12 12 13 15 15 15 15 15 14 15 16 16 16 16 17 17 16 21 24 25 23 21 25 36 38 38 39 37 36 36 35 35 36 36 34 36 37 35 37 35 32 33 32 32
5 5 5 5 5 6 7 8 7 7 7 7 8 8 8 9 9 10 13 12 12 13 14 11 12 14 16 17 13 12 10 8 9 15 5 7 10 11 13 13 11 10 8 9 13 14 13 15 15 14 14 14 15 16 16 16 14 15 15 19 27 25 24 23 31 38 39 41 38 38 39 37 36 36 36 36 38 34 35 34 34 34 32 30 30
6 6 6 6 6 7 7 7 7 6 7 7 8 8 8 8 8 8 10 11 12 13 15 13 11 12 14 17 17 15 13 10 12 12 18 12 8 7 9 9 9 8 8 9 12 12 12 13 15 16 14 13 14 15 15 16 18 18 21 23 26 25 25 24 28 37 41 44 43 42 41 39 38 37 37 37 38 38 38 35 34 33 32 33 33
7 6 6 6 7 8 7 7 7 7 7 7 9 9 8 8 8 9 10 11 14 15 15 12 11 11 11 12 14 14 14 16 16 15 15 16 19 10 9 11 9 10 10 11 11 12 14 14 15 15 14 15 14 15 15 15 15 16 16 23 25 27 27 27 29 37 46 43 44 48 45 43 41 42 39 37 38 38 37 36 35 34 34 34 34
6 7 7 7 7 8 7 7 7 8 7 8 8 9 10 10 9 9 11 12 12 13 12 13 12 13 11 12 13 13 13 14 14 13 11 13 16 17 13 7 8 10 9 10 11 11 13 15 15 16 14 15 15 16 16 15 14 14 17 22 24 25 27 26 27 19 33 44 39 38 41 47 45 40 37 36 37 38 40 38 35 34 33 33 33
6 6 7 7 7 7 7 7 8 8 8 8 9 10 11 11 11 11 13 14 12 13 15 14 13 13 12 12 12 12 14 14 15 14 14 17 19 19 12 11 13 13 9 9 11 10 12 14 15 15 15 14 14 15 16 17 16 15 17 23 24 25 24 24 23 19 21 36 39 41 38 38 41 41 39 38 39 40 38 35 39 36 37 33 32
7 7 7 7 7 7 8 8 8 8 9 9 9 10 11 12 13 14 15 13 12 15 19 19 14 13 13 12 13 15 14 15 13 12 12 12 13 16 11 9 12 17 14 11 12 12 12 13 14 15 16 15 14 14 15 16 19 20 24 23 24 25 25 23 24 25 22 24 35 33 41 38 36 37 39 39 40 40 39 37 35 34 32 31 33
7 7 7 6 7 8 8 9 9 8 9 9 9 10 11 12 13 12 14 16 16 16 17 19 17 13 14 13 13 14 14 15 14 12 11 12 12 15 11 8 10 11 12 12 11 13 12 13 14 15 15 14 13 13 14 16 17 25 22 26 26 27 27 25 27 30 32 28 29 33 33 38 36 33 35 39 38 40 41 38 37 36 35 34 33
8 8 8 7 8 8 8 8 9 8 9 10 10 11 13 13 14 16 16 16 15 17 16 16 14 14 13 12 13 14 14 15 16 15 12 12 12 16 15 9 14 12 8 7 9 7 9 11 12 14 15 14 13 13 13 13 14 19 21 22 30 29 30 29 31 33 35 35 30 32 30 31 33 35 35 37 40 39 38 39 38 34 36 36 31
10 10 8 9 8 9 10 10 10 11 11 11 12 12 13 13 15 15 16 14 15 17 12 13 14 16 14 14 14 14 15 15 16 15 14 12 13 15 14 10 12 14 8 7 9 11 8 6 8 11 13 14 13 13 12 13 13 16 21 17 27 34 33 32 34 36 38 38 34 32 33 30 30 33 35 37 37 34 36 40 36 37 36 37 33
10 10 10 9 11 10 10 11 11 11 12 12 12 13 14 14 14 14 14 13 15 14 14 16 17 19 19 16 14 14 15 14 15 17 16 13 13 12 11 13 12 12 12 8 10 12 14 10 8 10 11 9 10 11 11 10 10 16 18 14 16 35 32 35 35 37 39 39 38 35 31 30 30 32 33 35 34 33 36 36 35 39 40 35 33
10 10 11 10 11 11 11 12 12 11 12 13 14 12 12 13 14 14 15 12 14 15 14 14 15 17 17 17 15 15 14 15 15 15 14 12 11 11 11 13 15 14 9 11 9 12 13 11 10 12 13 12 10 9 11 12 9 15 15 13 10 19 35 39 40 38 35 34 32 32 34 31 29 32 32 32 32 32 34 33 34 35 30 29 30
11 10 11 11 11 11 12 12 12 13 12 13 13 14 14 13 14 15 15 13 15 16 16 18 17 17 15 17 15 14 14 15 15 14 13 12 10 10 10 14 13 14 10 10 10 11 11 10 10 10 13 14 12 10 10 10 9 12 7 8 12 12 27 36 41 44 38 32 32 30 33 34 32 33 32 31 31 31 30 30 30 28 29 30 28
11 11 11 13 12 14 13 14 15 14 12 13 14 15 15 14 15 16 16 16 16 15 16 16 17 16 16 13 12 12 12 13 15 15 13 12 11 10 11 12 13 13 13 11 12 9 10 8 8 9 8 14 14 11 11 12 13 16 11 7 10 13 24 30 28 30 36 36 32 29 30 32 31 32 32 31 31 31 31 31 30 30 28 28 28
11 12 12 13 13 14 13 14 13 15 16 15 15 15 15 14 13 14 14 15 15 16 15 13 11 11 13 15 12 12 12 15 15 16 12 11 9 8 10 11 12 12 13 14 15 10 7 10 10 9 10 12 15 13 12 12 13 17 14 10 9 15 21 25 34 34 32 33 33 30 30 30 30 29 28 30 30 30 29 30 29 29 29 28 29
11 13 13 14 14 14 13 14 16 13 16 16 14 15 13 14 13 14 14 16 17 18 17 16 12 13 15 16 17 15 14 13 14 16 13 11 9 9 10 12 12 12 12 12 12 16 8 10 9 10 12 13 14 16 15 13 13 21 13 13 13 15 13 13 24 32 35 38 36 31 31 30 30 29 28 29 29 30 30 28 28 29 28 27 27
12 14 13 14 15 15 16 16 15 16 15 16 14 13 13 14 14 15 17 17 19 17 16 18 16 16 18 19 17 14 13 14 14 14 14 12 10 9 9 10 12 12 11 12 14 17 10 9 9 11 12 12 15 15 17 15 14 15 17 14 14 13 13 13 17 26 30 35 40 38 31 30 30 28 28 28 28 29 29 29 28 29 29 27 26
12 14 15 14 14 16 16 17 16 17 16 17 17 14 14 15 15 13 14 18 19 19 17 17 18 16 15 16 16 16 14 14 15 16 16 12 10 10 10 11 11 11 11 12 14 14 16 9 9 10 11 12 16 15 16 17 17 13 16 15 14 16 15 13 15 18 27 27 28 35 38 34 31 28 27 27 27 28 29 29 28 28 28 27 26
12 13 14 15 16 16 17 17 18 16 18 16 15 15 17 17 16 15 15 17 19 19 19 19 18 17 18 17 17 15 14 15 15 15 15 14 10 11 12 10 13 12 11 13 12 13 15 15 10 11 11 12 16 18 17 17 18 19 18 17 16 15 15 16 16 15 25 26 27 28 30 32 31 29 27 27 27 27 28 28 27 27 27 26 25
14 14 14 15 16 16 17 18 17 19 18 17 17 16 17 18 16 17 16 16 17 19 19 19 17 17 19 19 18 15 15 15 15 14 15 13 11 10 11 11 11 12 11 12 13 13 13 14 12 10 11 11 14 19 17 16 19 18 17 16 18 19 16 15 17 17 21 27 28 28 27 26 28 29 27 26 26 25 24 25 26 26 25 24 24
13 13 14 14 15 16 16 18 19 18 19 18 19 19 17 17 17 18 18 18 18 18 19 18 19 19 19 19 19 17 17 16 14 14 13 15 10 9 10 9 11 12 11 11 11 11 13 15 14 9 10 11 13 15 17 17 15 16 16 18 19 19 19 17 14 17 24 28 26 29 27 26 23 27 26 25 24 25 25 24 24 24 23 23 23
14 14 15 15 14 17 18 18 19 19 18 18 18 19 19 18 17 17 17 18 19 19 19 19 19 18 19 19 19 18 17 17 15 14 14 13 11 9 9 8 9 9 11 11 11 12 14 15 12 11 9 11 13 12 15 19 17 14 12 14 17 18 18 17 14 14 15 16 16 20 23 25 24 25 27 25 25 25 24 24 23 23 23 23 23
14 16 16 16 16 16 18 18 18 19 19 19 19 19 19 19 19 19 19 19 19 17 17 17 18 17 19 19 19 17 18 18 17 15 15 14 11 11 10 10 9 10 11 11 11 12 13 15 13 13 11 11 13 11 11 18 18 19 18 14 13 11 14 18 15 12 14 16 19 24 22 21 25 22 25 26 26 25 23 23 22 22 23 23 23
14 15 16 17 17 16 17 18 19 18 19 19 19 19 18 18 18 18 18 18 18 18 17 17 17 17 19 19 19 19 19 19 15 15 14 13 11 12 10 8 7 6 6 6 7 9 11 13 12 12 12 13 13 12 10 15 16 15 18 19 18 15 13 14 17 17 14 16 15 15 18 18 21 23 25 25 26 26 24 22 22 22 23 24 24
13 14 15 16 17 18 18 18 19 18 17 17 15 15 16 17 17 18 18 18 18 17 17 17 17 17 17 18 19 19 21 26 30 26 23 20 13 9 7 7 8 8 9 9 9 7 8 9 11 11 12 13 15 14 13 15 19 18 14 17 18 20 18 16 15 17 18 18 14 15 15 18 16 16 15 16 17 22 21 22 20 24 23 23 25
13 13 14 15 16 17 19 19 18 16 16 14 19 28 25 19 18 16 15 15 16 17 17 17 16 16 17 17 18 27 29 30 30 31 30 31 30 22 11 9 8 9 9 9 9 7 7 10 13 12 15 16 16 16 15 16 17 18 22 19 19 17 17 15 12 10 14 16 16 16 14 14 16 15 14 16 15 18 13 16 15 17 21 24 25
12 12 13 15 15 16 18 19 19 17 15 15 27 27 28 30 23 19 17 16 15 15 13 14 14 15 15 17 18 21 24 26 25 32 31 31 29 29 25 19 15 12 10 11 10 8 8 10 12 16 16 19 19 16 18 20 18 21 20 19 17 18 18 19 16 7 9 18 17 16 14 12 16 16 14 15 15 14 15 14 19 22 25 26 28
12 11 13 14 14 16 16 17 18 17 17 22 29 28 29 29 27 20 17 16 15 15 16 17 15 15 17 18 17 15 16 18 18 19 23 27 30 29 28 25 26 26 21 13 11 9 10 10 12 16 16 19 18 18 18 19 18 19 20 20 21 22 21 21 19 21 16 19 18 15 13 8 12 15 14 13 13 14 14 17 23 24 26 27 25
12 13 12 14 15 14 15 18 18 18 18 24 27 29 29 30 30 25 17 17 16 16 17 17 15 16 15 16 16 14 14 25 22 18 16 16 22 27 26 26 26 27 25 24 20 14 10 11 12 16 17 18 19 20 20 20 17 20 19 19 20 21 22 22 20 18 18 19 19 17 17 11 12 14 15 11 10 12 13 19 24 25 26 28 30
12 13 13 14 14 15 17 18 18 18 19 23 29 29 29 30 31 27 17 18 16 16 16 17 16 16 15 17 16 16 16 17 16 15 13 13 11 11 13 13 12 15 20 22 22 23 19 13 14 17 19 17 18 19 20 22 23 22 22 22 23 22 22 22 19 18 18 20 23 19 16 13 10 13 13 8 8 11 11 19 26 24 24 24 29
11 11 13 15 14 15 16 16 17 18 17 28 29 31 30 30 30 27 16 16 14 13 14 16 16 16 16 16 18 19 17 17 15 15 11 11 12 12 12 12 12 11 11 11 12 11 11 12 15 18 20 20 19 20 19 22 26 24 25 26 27 25 19 14 13 15 16 16 18 18 19 16 11 14 11 9 7 8 6 17 25 25 28 29 28
10 11 11 12 14 15 14 16 17 19 19 28 30 31 32 30 31 18 15 15 13 12 11 14 15 15 15 16 17 17 17 19 22 27 24 16 12 11 12 12 11 11 11 11 16 16 14 13 15 18 17 21 25 19 20 23 23 21 20 16 13 14 17 17 16 15 17 14 17 19 16 16 11 15 9 6 7 7 6 7 21 26 25 28 29
12 12 12 11 11 13 15 15 17 18 18 24 29 31 30 30 24 14 14 12 11 13 13 14 14 15 17 18 18 17 17 17 24 29 28 24 14 14 13 12 11 10 12 10 17 21 23 24 28 32 34 35 34 32 28 32 26 20 17 17 17 19 20 19 16 17 17 15 14 16 15 16 11 13 10 8 10 11 9 9 10 21 28 26 28
13 12 12 12 11 12 14 16 15 18 18 24 30 29 29 29 24 16 14 13 14 13 14 14 11 13 17 28 24 19 18 17 21 25 25 20 15 14 13 12 13 14 14 10 9 12 18 22 26 31 35 35 36 33 29 29 28 22 22 23 22 22 22 21 19 18 16 16 14 11 14 16 12 9 10 6 5 2 6 6 6 9 17 23 27
11 11 11 12 12 12 12 15 22 22 18 21 29 29 29 28 22 14 13 12 13 12 12 11 11 12 12 16 25 23 21 21 29 28 29 23 15 13 12 12 14 16 14 9 10 12 13 13 16 19 20 26 25 23 23 32 31 28 25 26 24 24 23 21 21 18 16 14 13 15 16 12 16 12 14 11 11 1 1 6 7 7 9 7 14
Wind_Direction
357 346 335 344 338 340 337 332 328 322 322 316 313 314 316 316 314 309 310 311 309 309 311 310 309 310 309 310 310 309 306 299 292 282 270 261 256 250 246 242 244 244 241 242 241 236 233 236 238 237 236 232 219 215 215 215 215 206 193 185 182 176 177 179 179 178 178 175 174 173 169 169 168 168 167 170 167 170 174 171 170 167 165 163 161
349 342 348 337 330 329 336 336 332 327 326 320 316 309 308 310 307 307 305 302 303 301 302 302 301 300 302 303 306 308 307 305 298 291 283 272 263 257 250 245 243 245 244 238 242 243 240 231 233 235 235 232 227 222 210 209 219 212 202 203 194 181 180 180 180 179 179 177 176 173 170 169 167 167 168 169 169 170 174 172 169 168 163 162 165
357 349 348 343 341 342 340 335 334 333 329 319 316 312 305 299 300 299 301 299 293 293 294 293 292 293 291 292 297 300 300 301 299 292 286 280 272 262 253 246 241 241 245 241 236 243 241 240 234 234 236 236 230 228 223 210 210 215 206 193 200 187 177 179 181 181 180 179 177 174 171 170 167 167 168 170 167 170 173 173 169 169 162 162 164
351 348 348 347 348 349 341 341 335 330 330 324 318 313 308 299 291 287 287 289 289 285 279 282 286 284 287 287 288 287 291 296 295 294 289 284 277 267 256 249 242 238 242 243 237 234 242 239 237 236 236 238 232 231 228 215 213 210 209 202 193 194 189 179 183 184 181 180 177 174 171 171 168 168 169 170 169 169 170 172 170 170 165 163 161
355 357 355 353 347 341 342 336 332 330 325 320 315 310 307 307 302 295 290 285 284 284 278 274 278 280 280 284 286 281 281 284 286 290 288 284 279 273 264 253 247 242 239 242 239 236 239 241 235 235 235 233 231 227 224 214 213 215 210 209 202 198 194 179 181 184 183 182 180 173 172 170 169 169 171 170 170 170 173 172 173 173 170 168 165
6 3 358 352 348 343 339 335 332 329 322 320 318 312 304 301 300 305 300 295 290 284 283 281 274 273 274 280 279 283 282 277 277 281 285 281 280 276 270 261 250 246 242 238 238 237 238 237 236 233 235 237 234 234 225 217 217 216 215 212 202 202 190 181 179 183 185 184 179 175 172 171 170 169 171 171 169 170 173 175 175 172 170 170 168
7 5 351 348 341 334 331 329 328 325 320 317 312 309 302 299 300 295 291 292 288 285 283 279 282 280 277 277 279 287 284 278 276 274 276 281 277 275 270 266 257 251 247 245 234 233 236 240 236 232 235 238 236 234 232 225 224 215 212 212 206 203 194 180 181 181 186 189 181 176 172 171 170 170 170 171 169 171 174 175 174 172 168 167 168
2 359 352 346 337 333 326 325 326 321 316 312 311 311 311 303 298 296 298 289 290 290 281 283 283 282 279 278 280 279 279 282 279 272 271 275 273 271 269 266 261 253 250 248 242 232 228 235 240 234 233 236 238 235 232 225 227 223 211 208 209 207 203 195 186 184 186 188 181 177 173 172 170 170 170 172 168 170 174 176 173 171 167 168 171
354 353 356 341 339 333 326 325 325 320 312 311 308 310 314 308 302 293 284 291 287 281 285 283 286 287 289 281 278 279 274 276 280 278 275 265 268 267 267 264 262 258 252 247 245 240 230 227 235 239 234 234 235 234 230 229 226 228 219 210 209 211 206 193 188 193 186 183 181 178 174 172 170 169 167 171 170 172 171 172 171 170 168 170 173
347 348 350 340 336 328 325 325 324 321 317 313 308 306 304 305 306 304 296 288 286 285 284 282 282 287 288 286 286 278 275 275 273 276 270 266 259 257 257 261 259 259 253 248 245 239 236 229 229 236 236 235 236 236 232 231 223 226 228 222 213 205 204 203 191 190 184 184 181 178 175 172 170 170 170 170 172 172 174 171 173 169 170 169 174
339 342 349 341 335 332 328 327 325 320 317 310 307 303 298 300 301 300 296 287 284 283 284 286 285 283 282 282 282 279 278 273 270 267 265 260 258 255 253 251 254 253 254 250 244 241 235 233 229 231 238 234 234 233 226 229 234 229 230 225 227 213 204 204 200 188 189 186 181 179 175 171 170 171 172 173 172 171 171 172 174 171 171 172 175
320 326 331 331 329 325 323 324 325 324 321 319 312 311 304 299 291 292 292 283 274 278 282 287 283 277 278 279 275 277 273 270 268 262 263 259 256 255 252 248 246 252 252 249 245 240 235 232 228 229 232 236 232 229 226 224 230 230 230 227 224 221 208 198 198 194 190 183 177 174 175 169 168 169 169 168 169 169 175 173 174 171 174 175 176
320 332 330 330 324 318 319 320 318 315 309 301 297 293 288 285 289 288 291 289 278 266 270 275 285 286 274 273 279 265 266 269 266 264 256 254 252 251 248 246 244 247 250 249 245 240 237 230 227 228 229 230 231 228 225 221 222 226 226 225 220 225 212 198 196 190 182 181 176 175 174 171 167 167 169 168 167 171 176 175 175 174 174 176 176
322 326 323 320 317 315 310 304 306 297 288 283 283 282 289 288 291 290 275 289 290 285 280 291 275 277 302 300 283 275 263 261 255 254 250 251 252 250 245 241 240 242 244 247 246 241 236 231 226 225 226 225 223 224 226 222 220 222 223 225 225 216 218 209 197 191 178 178 177 174 172 171 168 170 170 169 172 173 174 175 175 174 175 175 176
314 311 308 307 303 303 297 294 289 289 291 288 289 296 295 294 289 285 295 275 279 284 280 257 276 279 276 293 289 313 291 251 256 252 252 244 245 246 246 242 238 235 238 243 245 241 236 231 227 224 224 223 219 221 223 219 218 219 221 221 221 218 218 209 198 192 183 176 178 172 171 171 167 168 169 169 171 172 175 175 174 174 174 175 175
297 296 297 297 294 290 291 291 290 290 293 296 295 291 291 290 289 283 280 290 283 278 265 265 258 275 275 235 279 291 298 283 310 287 259 267 264 262 251 249 247 236 234 237 242 240 236 232 229 225 225 223 219 219 220 221 220 218 216 217 219 219 220 209 203 193 186 182 174 170 172 171 168 169 172 170 173 174 174 173 174 173 174 175 175
269 264 262 268 268 269 279 285 287 287 287 287 290 289 290 286 286 285 286 294 301 297 287 268 257 244 258 276 276 265 253 286 324 280 271 266 256 264 288 277 252 242 233 234 239 239 237 235 231 228 223 221 221 219 221 221 219 217 218 217 218 218 215 214 202 192 185 182 174 170 167 171 168 170 172 170 172 173 174 175 174 171 172 174 175
264 264 254 258 262 267 272 277 278 282 284 286 286 287 281 281 280 287 287 282 278 289 286 280 266 251 242 247 247 259 278 289 322 292 284 247 285 277 271 268 283 288 265 248 242 240 236 235 232 230 223 220 220 218 219 222 218 213 212 213 213 211 210 209 200 195 189 183 176 170 170 170 169 169 172 173 172 171 174 174 173 170 170 172 173
283 276 275 272 280 280 275 273 274 278 286 288 286 280 278 272 279 282 291 298 291 281 281 284 283 266 250 242 245 249 256 269 269 294 286 286 241 255 263 260 263 273 277 263 256 254 248 241 235 230 228 223 219 219 219 220 217 214 208 209 208 205 204 203 202 197 192 184 178 172 170 170 167 169 170 171 172 172 174 173 172 170 171 172 173
277 272 268 275 278 278 276 280 282 281 285 285 284 283 278 272 269 278 285 281 276 271 271 275 280 284 284 268 256 257 254 253 250 254 275 286 288 261 259 275 265 253 255 260 257 255 255 245 240 234 229 223 219 218 218 217 216 214 212 208 205 201 201 204 210 201 185 185 181 174 170 169 170 172 169 170 171 171 173 172 171 169 171 172 174
262 267 268 269 273 276 278 279 284 287 286 285 281 280 277 277 274 272 272 273 269 273 283 281 280 281 286 282 277 266 258 250 248 245 250 277 275 278 281 260 248 249 245 252 254 244 243 245 241 235 227 222 217 217 217 216 216 214 213 209 208 202 200 201 204 224 204 175 171 173 173 171 168 165 165 168 172 172 170 171 171 171 172 173 173
271 265 271 269 273 273 276 281 284 285 284 281 285 285 285 279 272 268 268 270 279 283 278 276 274 274 271 279 277 274 265 257 246 243 248 243 258 269 272 287 288 275 251 251 260 254 246 241 243 239 231 223 217 216 215 216 215 215 214 210 210 209 201 193 189 185 208 176 168 166 169 172 166 164 167 168 171 171 172 170 170 170 171 172 171
278 272 268 274 272 275 280 281 281 281 281 280 278 280 281 279 276 273 271 274 278 278 274 268 264 265 270 269 266 262 258 251 244 240 246 259 275 274 278 263 264 278 270 251 255 256 244 237 236 235 232 227 219 214 214 216 216 216 213 212 212 211 206 191 181 177 177 190 166 169 163 168 170 165 165 167 169 172 171 169 168 168 170 171 171
277 278 273 272 277 278 278 281 279 277 275 274 275 277 280 280 277 274 275 277 276 273 267 265 259 270 273 270 270 269 259 252 251 245 241 251 256 272 276 293 275 263 281 280 255 252 243 235 233 234 233 228 220 214 215 215 218 217 217 214 213 212 208 197 184 175 169 182 176 168 171 165 165 165 166 168 168 170 172 170 168 170 172 173 173
286 282 283 282 283 284 282 278 279 272 272 274 274 273 276 276 275 274 275 274 272 267 261 260 265 261 266 274 276 276 272 262 251 249 244 248 251 266 264 258 272 274 270 289 282 265 244 242 236 229 231 226 219 214 213 215 217 212 214 217 214 211 206 198 184 178 171 169 177 168 170 168 164 163 169 168 168 169 173 170 169 169 174 174 177
290 285 286 286 279 276 278 276 273 275 272 270 271 271 271 271 270 271 270 270 268 264 271 286 285 284 282 277 275 277 277 268 256 247 244 239 245 250 268 258 256 265 256 250 267 280 270 244 245 240 230 224 216 212 211 209 214 194 193 205 212 209 203 190 182 177 171 167 170 172 165 170 167 165 167 167 168 171 169 170 171 171 172 175 176
286 288 287 283 280 276 274 272 272 271 272 271 272 273 271 271 271 269 271 268 265 263 267 274 278 277 276 274 276 276 277 276 260 245 241 235 240 253 263 272 265 254 253 238 251 246 262 270 251 248 247 234 220 210 204 199 194 190 182 194 205 202 192 182 174 174 169 167 167 166 164 166 168 166 167 167 168 167 169 172 172 172 173 176 173
287 287 285 282 280 279 276 272 269 264 266 268 272 271 271 273 273 271 268 266 271 274 276 270 265 269 272 272 271 272 277 274 262 249 242 240 237 250 254 254 265 273 257 249 238 249 241 254 259 240 244 240 229 215 205 194 190 181 190 178 184 189 181 172 166 162 165 165 164 162 161 163 168 166 168 167 165 168 170 170 170 171 171 171 173
286 286 287 283 280 278 278 273 269 267 264 266 266 269 271 271 272 273 272 276 277 276 274 269 265 263 261 266 272 276 278 281 275 256 247 246 240 244 247 255 257 264 265 262 247 246 246 218 254 249 226 236 232 217 209 203 180 169 191 193 163 164 160 161 162 157 158 165 165 163 162 164 168 167 169 166 165 168 167 166 166 168 170 175 176
287 286 285 284 283 281 279 277 276 269 259 259 262 265 268 269 268 268 268 268 266 265 264 264 259 254 255 261 271 279 280 283 279 262 244 243 243 237 245 250 252 257 263 265 264 228 248 232 235 261 247 231 229 214 210 206 169 169 167 206 168 162 157 149 151 154 155 162 165 164 165 165 167 167 168 167 166 166 164 165 167 168 173 176 175
287 287 286 285 283 282 280 278 275 277 274 269 266 265 263 263 265 268 267 266 266 267 262 259 274 289 290 285 280 276 279 280 280 270 250 241 245 249 251 249 254 257 253 248 260 241 202 239 247 258 272 249 226 216 206 201 176 177 166 176 177 164 161 160 158 161 161 161 162 165 167 165 165 166 168 166 165 164 164 166 167 169 176 177 178
288 286 285 283 283 283 281 280 281 277 278 274 267 264 262 263 265 267 267 267 267 266 267 272 279 280 281 277 271 268 268 274 280 277 255 240 234 238 243 250 250 252 264 269 259 266 210 231 243 253 264 269 238 213 202 192 184 183 171 169 167 158 158 166 168 166 165 162 161 166 166 165 165 166 167 166 166 165 166 168 169 171 176 179 180
288 285 283 283 284 282 282 278 279 281 280 278 272 264 263 264 265 265 267 265 267 267 270 268 269 273 270 263 264 265 273 276 279 280 264 243 237 235 241 250 252 248 247 252 260 267 260 222 234 246 257 264 257 223 196 187 183 192 174 169 160 161 167 170 170 171 171 169 164 162 163 164 166 167 168 167 167 167 168 170 171 174 177 180 180
285 285 286 285 283 283 281 281 282 282 280 280 277 269 263 263 265 263 263 265 265 265 264 267 270 271 277 287 284 281 274 274 275 275 268 253 242 241 242 242 245 249 239 246 252 261 266 246 233 239 249 247 252 232 198 182 178 184 176 168 167 165 169 172 169 169 169 168 167 160 159 163 166 168 170 170 169 168 169 172 174 176 176 177 177
283 282 286 288 286 285 283 282 284 282 281 277 278 275 272 268 265 264 262 263 264 264 264 266 270 272 273 274 277 276 274 272 272 273 272 255 244 246 245 239 243 242 241 242 249 254 258 260 237 244 241 245 240 229 204 182 174 177 169 166 164 165 163 166 166 166 166 162 163 159 160 161 164 167 170 172 172 172 172 172 175 175 175 175 174
289 291 288 290 290 287 287 285 283 284 281 279 278 274 272 272 270 268 266 262 261 262 262 265 266 269 272 273 270 270 268 265 266 272 274 259 237 238 244 244 247 246 242 250 249 254 257 261 247 231 243 241 247 224 202 182 175 175 167 159 160 161 159 166 165 161 167 164 163 159 159 162 165 166 171 172 173 172 174 175 175 175 175 173 170
291 295 296 296 294 291 288 287 287 283 280 280 279 277 272 269 270 270 269 268 265 263 263 264 264 265 268 267 271 272 271 267 265 265 262 263 246 240 243 246 248 246 243 247 254 257 261 251 255 238 240 245 244 227 191 177 173 169 163 161 161 158 158 160 164 160 163 166 165 159 160 165 171 168 170 172 173 175 177 176 176 174 173 171 169
301 301 300 299 295 292 289 288 285 283 281 279 278 276 275 272 271 270 268 266 265 264 264 263 262 262 266 267 267 265 263 263 265 268 270 260 249 240 242 249 256 258 256 253 252 257 261 260 250 252 234 242 246 238 197 169 164 158 154 155 154 155 152 153 160 155 161 163 166 161 161 166 174 175 170 176 176 177 179 177 174 172 171 169 168
304 304 301 297 294 292 291 289 286 285 283 281 278 275 273 271 270 269 267 265 266 265 263 262 261 263 267 267 265 264 264 262 263 261 261 262 258 252 243 249 253 256 253 252 250 252 254 256 249 244 246 242 246 239 207 169 164 159 155 152 148 149 147 148 151 157 160 164 167 165 167 169 171 179 177 176 177 180 178 176 175 170 168 168 166
304 302 301 298 295 292 290 289 287 285 283 281 278 275 273 271 268 266 264 266 266 266 265 262 262 263 266 267 267 265 265 262 253 251 251 252 249 243 235 229 244 261 278 286 281 264 253 250 244 239 232 242 246 242 205 171 163 163 161 156 152 148 146 151 155 158 165 162 164 167 168 163 170 179 177 175 178 180 178 177 174 170 170 168 166
302 299 297 296 294 294 291 287 287 284 282 280 278 276 274 271 267 264 262 260 259 261 262 262 259 258 257 259 261 261 259 259 265 268 268 267 270 263 236 225 236 249 260 265 266 270 281 271 255 238 237 234 236 232 208 182 166 163 164 160 157 156 152 154 162 163 163 160 161 162 168 170 171 178 180 178 181 179 179 176 177 174 173 169 169
302 298 295 291 289 290 292 291 287 284 281 279 277 278 276 274 271 266 261 256 253 249 252 257 258 256 256 257 259 259 260 260 259 258 256 256 254 250 241 219 222 239 246 251 252 257 261 266 265 248 230 232 229 221 203 181 169 161 162 161 156 150 142 144 144 162 161 155 155 162 171 173 167 171 179 180 182 177 179 178 179 176 174 172 173
299 297 292 290 288 287 289 289 288 285 282 280 282 282 281 278 276 274 272 270 264 261 252 250 251 254 256 262 267 263 261 260 258 256 253 251 249 246 241 236 232 228 236 241 247 246 254 261 267 254 230 228 223 216 202 179 178 167 163 156 150 148 152 150 153 152 176 159 162 162 168 173 165 171 181 183 177 179 177 183 173 174 171 173 175
302 297 292 283 281 284 288 290 289 288 285 285 286 287 284 282 280 277 275 273 270 266 256 256 255 263 267 270 268 270 269 262 254 251 251 248 246 242 238 237 235 229 227 228 242 252 245 257 264 267 238 221 216 211 201 179 173 167 163 155 157 158 159 160 160 168 174 166 159 163 163 171 168 170 174 184 176 182 178 174 171 175 175 171 167
299 296 289 288 283 291 296 298 297 295 292 291 290 289 288 285 282 280 277 272 267 266 269 265 257 266 267 270 270 267 265 268 268 260 255 250 244 240 236 233 230 226 226 230 234 241 253 251 258 265 262 224 210 210 197 175 167 162 160 163 165 164 163 164 168 163 166 165 156 163 167 174 170 171 175 180 171 170 165 170 173 177 179 173 165
301 298 298 302 308 306 304 300 299 298 295 297 295 293 290 287 284 283 277 273 259 257 254 257 253 255 255 264 266 266 266 267 264 256 248 247 245 232 228 224 220 222 228 235 241 245 244 244 252 259 260 258 214 210 199 171 169 168 166 166 167 167 168 171 162 153 159 165 165 161 165 175 178 168 174 172 169 165 169 172 170 173 168 176 171
305 307 312 312 307 305 306 305 303 300 299 299 298 297 297 295 291 289 283 278 268 264 260 256 249 247 248 248 257 261 265 267 265 268 261 249 240 234 227 225 222 225 224 229 235 240 241 236 247 249 257 260 252 215 197 179 172 172 170 170 171 169 157 133 120 137 153 170 161 156 171 176 175 171 171 157 160 157 163 169 171 173 169 171 171
304 302 301 302 303 304 304 304 304 302 299 300 300 299 297 296 294 290 279 272 263 256 255 258 259 253 252 255 257 254 255 261 265 265 264 263 255 245 237 234 235 232 234 226 236 244 243 248 256 262 260 251 252 231 200 183 176 173 170 152 126 112 120 134 142 150 161 176 168 168 171 171 172 171 151 149 144 152 158 169 178 172 176 171 169
308 307 305 304 304 303 303 301 299 298 299 302 304 302 301 301 301 294 291 285 268 257 251 245 246 251 259 259 256 255 251 253 259 264 263 260 255 255 253 251 247 247 249 242 246 249 250 252 259 263 262 258 248 236 208 184 172 164 146 137 142 145 150 154 155 156 169 169 187 177 155 163 175 166 136 156 164 164 168 174 181 180 175 178 169
310 307 306 303 301 300 301 300 297 302 305 305 307 306 305 303 302 302 302 295 285 273 257 243 233 242 251 258 253 248 251 254 258 260 263 265 266 260 257 255 254 252 252 247 247 255 260 267 271 269 261 250 243 230 202 182 162 150 155 159 163 161 159 155 158 166 163 175 180 159 147 169 157 154 127 109 85 90 160 166 167 188 192 177 171
301 302 303 302 300 300 296 296 303 307 301 301 302 302 301 303 306 302 298 296 301 300 284 252 241 248 252 256 256 251 246 246 251 254 256 254 252 250 252 254 255 254 253 250 256 266 275 284 282 275 254 238 230 214 194 176 158 162 167 166 165 165 163 164 159 154 156 177 182 168 158 156 160 171 148 137 169 166 143 156 165 174 177 211 177